Location: Babice
(50.3480°N, 22.9363°E)
Time: 12:38:10
(UTC+00:00)

NPP - Pass Details

Date: 14 July 2020
Orbit: 826 x 828 km, 98.7° (Epoch: 07 August)

Event Time Altitude Azimuth Distance (km) Brightness Sun altitude
Rises 01:16:23 0° 10° (N) 3,379 8.1 -9.6°
Reaches altitude 10° 01:18:52 10° 3° (N) 2,442 7.0 -9.4°
Maximum altitude 01:23:52 40° 296° (WNW) 1,200 4.4 -8.9°
Enters shadow 01:28:50 10° 228° (SW) 2,424 5.4 -8.4°
